Location: Bastogne Gables
(35.1554°N, 78.9900°W)
Time: 03:15:10
(UTC+00:00)

USA 308 - Pass Details

Date: 29 October 2020
Orbit: 571 x 578 km, 54.0° (Epoch: 23 November)

Event Time Altitude Azimuth Distance (km) Brightness Sun altitude
Rises 23:33:26 0° 326° (NW) 2,782 6.8 -14.7°
Reaches altitude 10° 23:36:07 10° 342° (NNW) 1,880 5.7 -15.3°
Maximum altitude 23:39:27 22° 33° (NNE) 1,279 4.3 -16.0°
Enters shadow 23:39:53 21° 42° (NE) 1,290 4.3 -16.1°
